Retour au catalogue

TIANTONG-1 2

ActifCommunicationsGEO
NORAD 46916·PAYLOAD·🇨🇳 China

Lancé Nov 12, 2020 depuis Xichang Satellite Launch Center

Loading…

TLE

FraisSource: Space-Track

Époque: Sep 14, 2026, 14:23 UTC

1 46916U 20082A   26257.59988778 -.00000363  00000-0  00000-0 0  9994
2 46916   0.7083 342.1644 0000571 228.5579 123.7595  1.00272527 21541

Suivez TIANTONG-1 2 en temps réel avec AllMySat

Download on the App Store